Forside
METAR-TAF:

METAR-TAF

Lufthavne :

DeKalb Taylor Municipal Airport

DeKalb, Illinois, USA

Breddekreds: 41-55-55N, længdekreds: 088-42-30W, højde: 279 m

Aktuelle vejr

Denne rapport blev lavet for 23 minutter siden, kl. 01:55 UTC
Vind 5 kt fra syd
Temperatur 24°C
Fugtighed 78%
Tryk 1013 hPa
Sigt: 16.1 km
skyfri

METAR: KDKB 250155Z AUTO 18005KT 10SM CLR 24/20 A2990 RMK AO2 T02350196

Tid: 21:18 (02:18 UTC)


TAF: fraværende

Vejrobservationer og prognoser fra mere end 4000 lufthavne (METAR og TAF).

De gule og røde prikker repræsenterer de meteorologiske stationer.

Flyt musen over at se navnet på stationen.

Så klik over at se vejr observationer og prognoser.

At skifte det kort: Klik på de grønne knapper med et sort kors for at zoome ind; på den grønne knap med en bindestreg for at zoome ud; eller på de grønne pile for tilstødende kort.


METAR-TAF: